Theta_e
306 307 307 307 307 307 306 305 304 302 304 304 304 306 306 304 301 302 308 306 309 311 313 321 322 320 322 326 327 326 330 327 326 327 327 325 326 328 329 329 330 330 328 329 331
307 307 307 307 307 307 306 306 304 303 301 301 301 301 302 302 305 309 305 306 307 311 312 314 317 323 328 327 328 329 331 331 325 325 325 325 325 327 329 330 330 330 330 330 332
307 307 307 307 307 307 307 307 307 306 304 302 302 302 303 302 310 310 313 313 312 307 313 316 315 318 328 329 329 330 333 332 330 327 325 325 326 327 329 330 330 330 330 329 329
307 306 306 306 305 305 305 307 307 307 308 306 305 306 304 305 300 312 310 312 313 314 316 315 313 315 316 324 328 330 332 333 333 330 327 326 326 327 327 329 330 330 330 329 328
306 307 306 306 306 305 303 301 300 302 305 307 308 309 308 308 308 306 306 306 307 318 316 314 313 312 312 314 320 325 327 328 328 329 328 327 327 327 328 329 329 328 328 328 327
306 305 303 303 303 302 302 302 302 301 300 303 308 309 307 307 301 301 302 306 308 311 314 313 312 311 312 312 314 318 322 324 323 323 326 329 329 329 329 329 328 328 325 324 325
305 303 302 301 301 301 300 300 300 300 303 307 308 309 308 307 302 301 304 304 305 306 309 312 313 313 312 313 313 315 316 318 319 319 321 324 325 326 327 326 327 327 326 325 324
304 303 302 301 302 301 300 300 304 306 308 309 309 310 308 306 304 304 304 306 308 309 308 309 310 312 312 313 315 318 318 319 320 320 321 322 325 326 325 325 326 325 326 326 326
304 303 304 305 305 304 300 303 307 309 308 309 310 309 309 309 310 311 309 307 308 309 309 309 310 309 312 313 315 314 321 321 321 321 322 322 324 324 325 325 324 324 325 326 326
302 301 304 304 304 304 302 307 308 311 311 311 310 311 310 308 311 312 311 308 309 308 309 308 306 309 308 312 318 317 318 320 321 321 321 322 323 323 323 324 324 324 324 324 325
300 300 301 302 304 306 307 307 306 305 307 306 306 307 309 307 307 310 309 308 310 309 307 307 306 308 309 312 314 317 319 320 321 320 321 321 323 323 323 321 322 323 323 323 324
299 300 301 304 306 307 308 307 307 305 305 306 306 306 306 306 306 307 307 305 306 307 309 308 307 308 310 312 312 314 315 316 316 317 320 321 322 322 322 322 322 322 322 321 322
300 300 302 305 307 307 307 307 306 306 305 306 309 310 308 307 307 307 306 306 305 304 305 312 312 311 309 310 313 313 313 314 315 315 315 315 316 318 319 319 319 321 322 322 322
301 301 302 304 307 307 307 307 306 307 307 309 309 308 309 306 306 307 307 307 305 304 304 304 305 307 312 309 312 313 314 314 315 316 316 315 316 316 318 318 319 319 320 321 323
301 301 301 304 306 306 307 307 307 305 307 308 309 308 308 307 309 312 312 307 307 306 304 305 305 306 308 311 312 312 314 315 316 315 315 316 316 318 317 319 319 319 321 321 322
301 301 302 305 305 307 308 307 306 306 307 308 307 308 309 309 309 310 312 312 312 310 306 305 305 305 305 306 307 308 312 314 314 314 315 315 316 317 317 317 317 321 320 321 320
301 301 303 304 306 308 308 305 304 306 307 305 306 307 309 309 310 309 311 313 315 315 314 312 308 306 307 306 306 306 307 311 313 315 317 315 315 317 317 318 317 317 319 320 319
301 302 307 309 309 308 307 304 306 308 308 307 306 307 308 309 309 310 310 311 312 313 313 314 314 315 314 312 308 305 305 311 314 317 317 315 317 316 317 317 317 318 319 320 319
303 305 307 310 308 308 304 305 309 309 309 307 307 308 309 308 310 309 310 311 313 314 312 313 312 310 309 309 309 309 306 307 310 312 314 316 316 317 317 316 317 317 319 319 326
304 306 308 310 309 308 305 310 311 309 308 308 308 309 309 309 310 310 310 311 311 312 310 311 312 311 309 309 309 310 311 308 308 314 315 316 318 318 317 317 317 317 317 330 335
306 306 309 309 309 303 302 307 308 307 308 309 309 309 309 310 310 310 311 311 311 311 311 310 311 311 311 311 311 313 312 310 308 311 316 316 317 315 316 317 317 321 321 337 337
303 308 309 307 305 306 307 309 309 308 308 310 309 308 310 310 309 311 311 311 311 311 313 309 312 314 311 309 309 312 314 313 308 309 314 315 316 317 315 315 318 321 336 336 337
301 304 309 308 309 303 306 308 309 308 309 309 307 308 309 309 310 310 309 310 311 310 312 312 310 312 308 311 314 314 319 316 315 308 311 315 317 315 316 317 318 323 336 336 336
303 307 303 302 303 305 307 309 309 308 309 306 306 307 308 308 307 308 308 309 310 311 312 312 312 310 310 310 313 314 315 315 317 320 314 313 314 316 316 316 317 326 335 336 336
303 302 304 302 304 305 306 308 309 311 307 306 306 307 307 307 308 307 309 309 309 310 311 311 313 313 312 311 311 312 313 314 317 317 320 319 318 317 317 316 317 326 335 337 337
302 304 304 304 305 307 306 310 310 310 310 308 307 307 306 308 309 310 309 309 310 309 311 312 315 316 315 313 314 315 315 316 316 315 316 317 318 317 318 329 332 333 336 337 337
302 304 305 306 305 306 307 309 311 309 309 308 307 307 308 309 309 308 308 307 307 307 310 310 311 314 316 316 317 318 317 316 313 315 317 318 317 318 332 335 333 334 337 337 337
Wind_Speed
16 17 17 17 17 18 19 19 19 19 19 19 20 20 22 25 27 23 10 21 14 25 12 4 7 12 10 4 5 5 1 4 6 5 6 10 7 6 5 6 2 3 8 9 23
17 17 18 19 19 19 19 19 20 20 20 19 20 21 23 26 26 15 31 30 25 20 14 14 5 9 4 7 4 5 5 8 8 6 8 14 17 14 11 6 6 5 2 8 19
17 17 18 19 20 21 21 20 20 20 20 21 21 22 23 22 6 9 6 3 12 27 26 12 15 5 8 5 6 7 12 13 14 11 10 17 17 15 12 16 4 5 6 6 3
17 17 18 19 19 20 21 21 21 21 21 21 21 23 23 8 7 3 9 11 10 15 18 14 6 6 6 14 14 9 13 17 21 17 15 18 17 16 16 14 13 7 14 5 7
20 21 21 22 22 23 24 24 24 23 22 20 19 16 11 3 10 20 19 20 22 9 25 11 11 5 7 5 10 18 10 14 17 19 19 17 20 19 21 18 18 8 11 11 9
22 23 25 26 26 27 27 26 27 28 27 23 16 12 5 10 17 21 23 17 14 7 19 14 6 8 4 6 11 4 10 18 15 17 18 20 23 21 23 21 18 15 11 11 12
25 25 27 29 30 30 31 32 33 30 25 20 15 11 12 18 19 21 18 25 26 17 5 20 15 6 7 4 8 10 13 16 17 10 9 7 22 24 21 18 17 15 10 10 9
25 26 28 31 31 31 31 31 29 28 23 15 9 9 9 26 29 31 28 25 19 17 17 15 6 8 5 5 6 4 5 19 19 18 10 3 30 18 8 13 17 12 14 17 19
25 28 28 29 29 29 30 26 25 23 10 2 4 5 10 17 8 19 19 15 10 13 9 10 4 6 2 4 1 7 17 18 17 11 8 15 39 17 15 11 10 13 18 18 18
28 31 31 29 27 30 26 24 18 10 10 4 5 2 8 8 8 20 13 14 9 3 2 2 4 5 5 6 17 12 18 20 18 6 16 21 32 21 18 18 18 22 22 19 20
30 33 32 27 25 24 20 16 8 4 10 6 16 18 18 49 39 22 15 6 6 3 7 3 4 18 23 18 12 10 18 8 2 13 16 18 18 20 14 9 13 21 15 17 18
30 32 29 25 25 15 10 2 7 9 11 9 17 22 37 43 26 28 28 2 2 4 6 5 20 14 10 7 14 15 14 16 8 9 11 15 23 24 21 18 19 20 17 15 8
29 30 27 25 17 10 16 10 25 18 2 8 18 14 17 13 21 25 16 9 6 5 5 11 4 9 17 12 15 16 20 15 12 13 23 13 12 11 13 11 12 9 12 11 10
32 30 24 27 5 20 12 21 20 19 1 6 9 5 16 3 5 22 27 13 5 10 8 10 9 14 12 22 13 20 9 16 16 10 16 9 18 22 18 23 18 13 10 10 13
34 32 22 16 13 8 14 25 17 2 4 14 10 6 4 9 7 6 15 15 20 14 7 11 7 2 13 15 14 20 11 15 13 11 16 19 6 26 6 17 14 12 10 14 14
38 29 23 8 11 13 20 25 6 4 3 6 10 17 16 16 7 8 9 5 1 11 17 14 8 11 9 11 9 5 8 10 9 4 10 10 8 28 15 22 15 6 11 14 13
37 27 17 13 5 14 20 6 4 4 5 10 13 15 11 14 11 14 7 7 5 4 2 3 10 15 12 12 9 5 2 2 2 6 17 12 9 22 6 3 8 11 12 13 11
35 26 8 12 11 16 12 5 6 9 11 19 13 9 9 14 10 15 12 7 6 2 1 2 4 6 2 2 2 6 9 5 7 4 7 9 13 17 19 30 22 20 17 15 4
34 15 6 4 4 4 4 4 2 5 12 15 19 3 3 7 6 9 5 3 4 3 3 2 3 5 9 7 6 5 9 5 5 15 1 7 10 18 21 24 21 22 9 12 7
18 9 6 4 1 3 4 2 3 9 18 15 8 6 8 6 7 7 3 5 8 8 1 1 3 6 5 4 5 9 3 4 4 6 9 6 8 11 6 10 12 10 15 6 9
6 4 3 4 1 5 2 4 11 11 14 6 10 5 6 4 4 5 9 8 7 7 8 4 4 4 5 3 5 2 4 4 4 4 10 6 9 6 12 12 15 15 12 15 16
6 3 2 4 4 1 3 9 14 13 8 6 5 3 2 4 5 5 2 4 9 8 6 4 2 4 10 16 17 7 5 5 4 10 5 10 18 8 10 11 12 10 12 15 17
3 3 6 6 3 3 5 11 7 12 8 4 5 2 1 5 4 5 6 3 5 3 1 4 3 4 9 3 5 4 3 2 5 6 18 6 8 10 9 15 16 4 11 13 14
3 4 4 4 1 2 7 7 8 11 8 9 6 3 4 5 3 6 11 3 1 4 12 4 4 6 6 9 6 10 8 6 2 2 10 18 16 22 17 20 19 7 12 17 17
2 2 1 4 4 7 7 5 10 7 5 5 5 7 7 5 12 5 7 13 8 7 3 5 5 9 14 16 16 17 19 11 8 6 3 6 10 19 19 20 21 13 16 17 17
3 3 4 4 5 6 5 2 10 13 4 7 5 14 10 7 12 19 14 7 9 5 5 3 3 3 14 19 19 21 19 13 14 11 10 15 17 17 19 13 7 19 22 21 20
7 5 2 4 4 3 3 10 8 15 7 8 14 14 12 14 11 17 17 14 11 8 8 6 4 2 8 9 4 7 12 13 7 5 3 5 7 11 5 13 9 3 22 22 21
Wind_Direction
354 351 347 343 340 337 337 338 336 333 330 329 324 327 328 322 317 313 244 248 250 245 243 228 219 215 206 229 200 134 160 232 240 210 257 339 359 291 325 357 73 196 153 195 198
353 348 345 341 336 334 334 332 331 332 330 328 323 325 324 327 320 268 275 267 250 236 214 228 223 195 209 203 204 154 196 230 215 251 292 311 307 291 326 332 322 327 17 6 190
355 351 344 338 333 329 327 325 324 322 322 323 323 322 323 335 311 248 23 6 242 231 231 230 234 238 214 223 199 199 219 232 257 259 271 284 286 291 301 298 249 244 299 328 218
355 349 343 340 335 331 328 322 318 314 312 314 318 322 326 333 259 129 31 6 328 241 226 214 215 204 205 224 224 255 225 227 254 254 258 260 281 282 275 270 275 262 304 281 283
349 345 341 336 333 332 331 329 324 318 310 307 310 319 337 277 253 249 282 298 316 229 201 201 199 172 211 224 237 244 240 232 242 257 256 262 264 264 276 277 276 247 252 252 249
347 346 345 342 338 334 332 326 320 316 311 305 303 304 270 265 261 273 284 293 278 268 196 204 213 199 267 231 223 306 240 254 253 250 253 255 260 262 269 268 279 277 240 226 228
344 347 347 343 338 334 329 323 318 313 306 296 293 286 256 250 264 278 273 277 274 280 301 217 224 221 182 274 252 258 271 276 252 248 256 270 265 250 251 267 269 271 290 298 278
339 341 343 341 335 331 330 325 324 321 307 286 276 270 264 268 282 278 271 277 261 267 249 265 274 224 201 285 313 259 246 244 249 248 254 261 261 253 258 248 260 267 275 280 276
336 335 333 328 325 328 332 331 336 332 331 282 177 188 268 297 252 276 254 238 255 265 252 258 226 190 184 147 280 231 243 240 246 228 233 206 258 256 250 247 270 277 277 278 278
341 341 335 331 332 340 330 338 349 47 52 116 208 264 253 269 287 319 275 221 234 228 312 257 209 200 164 174 214 220 226 237 247 220 231 242 261 263 265 270 270 269 268 268 264
344 343 342 344 341 339 328 339 11 341 307 246 278 259 270 284 289 289 321 3 249 195 177 205 189 220 211 216 236 259 245 268 232 217 228 245 257 261 253 244 262 266 269 261 257
346 344 342 340 341 343 339 330 314 294 307 311 286 276 265 264 276 283 292 278 296 200 168 197 229 234 246 220 231 249 263 266 290 289 236 246 255 263 264 259 249 256 259 253 256
347 344 341 337 340 348 331 320 335 340 316 307 320 310 318 231 243 263 267 262 230 250 226 217 218 230 241 239 245 231 236 254 261 294 288 291 285 284 266 250 257 262 250 265 241
346 344 338 336 338 328 308 327 336 335 47 287 334 329 327 244 277 242 255 233 232 217 246 255 229 254 249 230 230 246 242 238 254 250 258 216 277 268 266 264 264 241 247 245 248
344 341 335 336 286 300 313 331 329 8 45 340 297 290 253 299 273 267 294 201 226 217 180 231 283 172 236 243 225 252 259 232 237 235 251 262 293 267 250 258 247 248 248 251 255
341 335 334 317 293 309 332 330 345 45 309 315 339 347 353 354 343 324 16 34 272 241 229 226 220 248 248 265 257 325 245 244 253 234 251 219 199 272 248 246 246 218 242 255 266
337 334 318 284 263 327 328 358 37 85 292 349 354 350 5 352 349 8 90 194 142 293 72 268 235 237 242 257 270 209 47 246 246 197 236 158 211 237 248 279 223 237 247 253 245
337 333 323 279 292 302 324 40 64 16 330 334 338 343 347 359 352 349 3 16 137 197 149 256 284 174 32 99 273 215 177 197 195 204 230 274 229 240 232 262 265 260 247 252 240
334 345 307 280 297 275 61 32 248 347 320 319 325 325 280 3 327 357 334 352 17 22 143 193 252 340 319 308 138 308 222 179 287 273 270 226 274 281 275 275 267 269 239 245 195
336 345 296 192 174 65 70 266 281 322 320 322 321 328 348 335 359 345 305 48 349 350 351 217 292 254 287 299 241 208 253 176 204 200 239 253 257 234 255 260 266 262 245 172 146
10 21 170 204 350 50 122 253 310 320 322 314 335 350 345 334 286 328 349 334 357 341 331 309 162 298 347 241 218 273 216 191 161 197 221 256 249 197 264 260 278 296 204 155 155
351 26 251 256 32 39 332 315 308 317 318 346 313 4 336 332 346 347 263 335 350 330 331 309 156 271 260 267 256 258 255 172 218 238 258 242 253 312 252 278 285 243 163 159 158
346 278 31 358 27 322 290 316 283 332 331 1 298 33 312 344 344 289 357 173 225 324 318 332 326 324 328 314 44 240 103 4 284 206 238 249 263 226 282 276 280 227 149 148 144
350 358 332 37 125 336 321 332 319 328 307 351 294 22 353 308 238 277 301 280 194 237 275 242 227 203 224 253 304 290 275 306 84 276 246 243 278 273 271 278 292 145 172 156 156
28 287 229 305 327 318 313 288 310 326 299 320 306 351 325 294 307 252 312 306 293 282 156 157 232 226 255 265 266 262 265 256 235 233 238 299 297 289 289 281 267 181 174 155 154
18 5 347 277 276 329 322 329 306 327 303 296 306 307 301 269 262 281 279 265 257 253 175 133 268 304 278 272 257 252 252 236 232 236 248 250 273 275 277 289 273 174 167 163 160
344 321 262 265 286 347 288 318 315 318 285 277 297 298 291 277 275 283 274 259 243 197 190 180 198 261 273 341 111 229 239 232 231 195 209 243 238 302 309 336 39 246 163 160 159